Location: Arleux
(50.3632°N, 2.8721°E)
Time: 09:35:30
(UTC+00:00)

Cosmos 2263 Rocket - Pass Details

Date: 15 December 2019
Orbit: 824 x 848 km, 71.0° (Epoch: 20 January)

Event Time Altitude Azimuth Distance (km) Brightness Sun altitude
Exits shadow 05:24:21 41° 297° (WNW) 1,193 2.5 -20.6°
Maximum altitude 05:24:49 41° 310° (NW) 1,179 2.5 -20.6°
Drops below altitude 10° 05:30:05 10° 20° (NNE) 2,436 4.7 -19.8°
Sets 05:32:40 0° 28° (NNE) 3,374 5.5 -19.4°
